Probability
48 45 55 55 61 68 74 68 68 71 71 68 71 77 77 74 74 74 74 65 55 48 52 29 35 35 32 23 16 23 16 19 16 10 10 19 23 23 29 29 19 19 19
48 48 48 52 55 65 65 68 68 65 71 74 74 74 81 71 71 68 71 65 48 35 13 35 29 29 29 16 16 16 13 13 10 6 10 3 13 19 10 19 16 13 13
52 52 48 55 58 61 71 58 71 71 71 74 74 71 71 68 65 71 71 52 39 32 35 26 32 29 23 23 13 10 13 13 13 16 6 6 3 6 3 3 13 13 19
48 58 52 61 61 65 71 71 74 77 74 77 68 61 61 58 65 68 71 58 42 32 32 26 26 26 26 29 10 13 13 6 16 13 13 10 10 3 0 3 3 6 10
39 55 55 55 61 61 68 71 77 77 74 61 71 61 65 65 65 68 71 58 45 42 26 29 19 16 26 16 10 16 10 13 10 6 3 3 13 3 0 0 0 3 6
26 48 52 52 55 55 55 65 68 74 77 81 81 74 68 74 68 61 61 48 52 42 26 23 23 16 23 23 16 13 6 10 6 10 3 0 0 0 0 0 0 3 3
32 35 52 52 52 48 52 55 71 74 74 74 81 71 68 71 65 55 52 42 39 39 35 16 23 19 23 23 16 13 10 10 6 6 3 0 0 0 0 0 0 0 3
35 42 52 48 52 52 61 68 68 74 77 74 71 65 65 61 55 55 45 45 35 23 35 32 23 19 19 13 13 10 10 6 6 3 3 6 6 3 0 0 0 0 0
29 35 42 48 48 52 61 61 74 71 65 68 65 61 55 61 58 58 45 39 32 26 29 23 23 19 16 13 13 16 10 3 6 3 3 6 0 3 3 0 0 0 0
23 32 39 42 52 52 61 65 71 71 65 61 61 45 52 55 55 45 39 45 48 26 26 19 16 13 13 13 13 16 10 6 6 16 10 6 6 6 0 0 0 0 0
26 32 32 35 55 55 48 65 68 74 65 61 65 61 52 45 48 42 39 45 35 29 19 13 13 16 19 16 19 6 10 3 10 6 3 3 6 6 3 0 0 0 0
32 32 32 45 45 48 45 61 65 65 65 71 68 65 58 58 48 45 45 52 45 32 23 23 19 23 10 23 16 10 6 6 10 6 10 10 3 6 10 3 3 0 0
42 42 45 52 61 58 65 58 61 61 65 68 65 74 65 65 58 58 52 45 52 35 26 29 29 26 26 26 19 19 19 13 10 10 13 13 10 10 6 3 3 3 0
61 58 77 77 74 77 81 74 71 68 61 68 65 77 74 68 65 65 65 61 55 39 39 35 35 32 29 29 23 19 19 19 19 10 10 10 6 6 6 3 6 0 0
68 74 81 87 87 84 94 84 77 87 84 74 74 81 81 77 68 65 65 65 48 29 42 42 42 39 29 23 23 26 16 19 19 19 13 10 6 0 0 0 0 0 0
71 77 90 97 94 94 97 90 87 90 94 87 74 84 81 77 68 65 68 65 55 52 45 45 45 39 6 3 0 13 16 16 19 19 16 6 0 0 0 0 0 0 0
74 84 90 94 94 94 90 90 84 87 87 87 84 87 84 77 68 61 65 65 55 58 55 45 52 45 26 3 0 0 3 6 10 19 26 0 0 0 0 0 0 0 0
77 87 87 90 90 90 87 87 81 84 84 84 81 84 87 74 71 68 68 68 68 55 58 52 48 55 39 0 0 0 0 0 3 3 16 13 16 0 0 0 0 0 0
81 84 71 74 77 77 81 81 74 74 77 77 74 74 71 77 74 77 71 71 68 65 52 58 58 61 42 0 0 0 0 0 0 3 3 6 10 0 0 0 0 0 0
61 71 61 61 81 77 71 74 74 74 68 65 68 74 74 71 68 58 65 55 55 55 55 48 58 58 52 10 0 0 0 0 3 3 3 0 0 0 0 0 0 0 0
58 68 65 65 65 61 68 65 61 58 48 42 45 52 55 55 55 55 55 58 55 48 48 42 45 45 35 13 0 0 0 0 3 0 0 0 0 0 0 0 0 0 0
42 45 58 55 55 61 58 52 45 29 29 26 26 29 32 29 29 39 39 42 45 42 48 52 48 35 32 6 0 0 0 0 0 0 0 0 0 0 0 0 0 0 0
32 32 29 26 29 29 32 29 19 19 19 16 16 19 19 19 23 26 29 35 35 23 19 16 23 23 26 10 0 0 0 0 0 0 0 0 0 0 0 0 0 0 0
26 26 23 23 19 23 19 23 16 16 16 16 16 13 13 13 10 10 13 13 13 13 6 13 13 10 3 3 0 0 0 0 0 0 0 0 0 0 0 0 0 0 0
19 19 19 19 19 16 16 13 13 13 16 13 13 10 6 6 10 6 3 3 3 6 6 6 3 3 3 3 0 0 0 0 0 0 0 0 0 0 0 0 0 0 0
19 19 16 13 13 13 13 13 13 13 13 13 13 3 3 6 3 6 3 3 0 0 0 0 0 0 0 0 0 0 0 0 0 0 0 0 0 0 0 0 0 0 0
Height
5834 5833 5835 5837 5840 5842 5846 5850 5853 5856 5859 5862 5865 5867 5870 5872 5874 5875 5877 5878 5878 5879 5880 5881 5881 5881 5881 5881 5881 5880 5880 5880 5879 5879 5878 5878 5878 5877 5877 5876 5876 5876 5876
5834 5833 5832 5835 5838 5841 5844 5848 5851 5854 5857 5860 5863 5866 5868 5871 5873 5874 5875 5877 5877 5878 5879 5880 5880 5881 5881 5881 5880 5880 5880 5879 5878 5877 5877 5877 5877 5875 5875 5874 5873 5873 5873
5835 5834 5834 5836 5837 5840 5843 5847 5849 5852 5856 5859 5862 5864 5867 5870 5872 5873 5875 5876 5877 5877 5878 5879 5880 5880 5880 5880 5879 5879 5879 5878 5877 5876 5875 5875 5874 5873 5873 5872 5871 5870 5870
5835 5834 5834 5835 5837 5840 5843 5845 5848 5851 5854 5857 5860 5863 5866 5868 5870 5872 5874 5875 5876 5877 5878 5878 5879 5879 5879 5879 5878 5878 5877 5876 5875 5874 5873 5873 5872 5871 5870 5869 5868 5867 5866
5836 5835 5835 5835 5837 5839 5841 5844 5847 5850 5853 5856 5859 5862 5864 5867 5869 5871 5872 5874 5875 5876 5877 5877 5878 5878 5878 5878 5877 5876 5876 5875 5874 5873 5872 5871 5870 5869 5868 5867 5866 5864 5863
5837 5836 5835 5836 5837 5839 5840 5843 5846 5849 5852 5855 5858 5861 5863 5866 5868 5870 5871 5872 5874 5875 5876 5876 5877 5877 5877 5876 5876 5875 5874 5873 5872 5871 5870 5869 5868 5866 5865 5864 5862 5861 5860
5838 5837 5836 5836 5837 5839 5840 5843 5845 5848 5851 5854 5857 5859 5862 5864 5867 5868 5870 5871 5873 5874 5874 5875 5875 5875 5875 5875 5874 5873 5872 5871 5870 5868 5867 5866 5865 5864 5862 5861 5859 5858 5856
5839 5838 5838 5838 5838 5839 5841 5843 5845 5848 5851 5854 5856 5858 5861 5863 5865 5867 5868 5870 5871 5872 5872 5873 5873 5873 5873 5872 5871 5871 5869 5868 5867 5866 5864 5863 5862 5860 5859 5857 5856 5854 5853
5840 5840 5839 5839 5840 5840 5842 5844 5845 5848 5850 5852 5855 5857 5859 5862 5863 5865 5866 5868 5869 5869 5870 5870 5870 5870 5870 5869 5868 5868 5866 5865 5864 5863 5861 5860 5858 5857 5855 5853 5852 5850 5848
5840 5840 5839 5840 5840 5841 5842 5843 5845 5847 5849 5851 5853 5856 5858 5860 5861 5862 5864 5865 5866 5866 5867 5867 5867 5867 5866 5866 5865 5864 5863 5862 5860 5859 5857 5856 5854 5853 5851 5849 5847 5845 5843
5839 5839 5839 5839 5840 5840 5841 5843 5844 5846 5848 5850 5852 5854 5856 5857 5858 5860 5861 5862 5863 5863 5863 5863 5863 5863 5862 5862 5861 5860 5859 5857 5856 5855 5853 5851 5850 5848 5846 5844 5842 5840 5838
5838 5838 5838 5839 5839 5840 5840 5841 5843 5844 5846 5848 5850 5851 5853 5854 5855 5856 5857 5858 5859 5859 5859 5859 5858 5858 5857 5857 5856 5855 5854 5852 5851 5849 5848 5846 5844 5842 5840 5839 5836 5834 5832
5837 5837 5837 5837 5838 5839 5839 5840 5841 5842 5844 5846 5847 5849 5850 5851 5852 5852 5853 5854 5854 5854 5854 5854 5853 5852 5852 5851 5850 5849 5848 5846 5845 5843 5842 5840 5838 5836 5834 5832 5830 5828 5825
5835 5835 5835 5836 5836 5837 5838 5838 5839 5840 5842 5843 5844 5845 5846 5847 5848 5848 5849 5849 5849 5849 5848 5848 5847 5846 5845 5844 5843 5842 5841 5840 5838 5836 5835 5833 5831 5829 5827 5825 5823 5821 5818
5832 5833 5833 5834 5834 5835 5835 5836 5837 5838 5839 5840 5841 5842 5842 5843 5843 5843 5843 5843 5843 5842 5842 5841 5840 5839 5838 5837 5836 5835 5834 5832 5831 5829 5827 5826 5824 5822 5819 5817 5815 5813 5810
5829 5830 5830 5831 5831 5832 5832 5833 5834 5835 5835 5836 5837 5837 5837 5837 5837 5837 5837 5837 5836 5835 5834 5834 5833 5832 5831 5830 5828 5827 5826 5824 5823 5821 5819 5817 5815 5813 5811 5809 5806 5804 5802
5825 5826 5827 5827 5828 5828 5828 5829 5830 5830 5831 5831 5832 5832 5832 5831 5831 5830 5830 5829 5828 5827 5826 5825 5824 5824 5822 5821 5819 5818 5817 5815 5814 5812 5810 5808 5806 5804 5802 5799 5797 5795 5792
5821 5821 5822 5823 5824 5824 5824 5824 5825 5825 5825 5825 5825 5825 5825 5824 5823 5823 5822 5821 5820 5819 5818 5816 5815 5815 5813 5811 5810 5809 5807 5806 5804 5803 5801 5798 5796 5794 5791 5789 5787 5785 5783
5816 5817 5818 5818 5818 5819 5819 5819 5819 5819 5818 5818 5818 5818 5817 5816 5815 5814 5813 5812 5811 5809 5808 5807 5805 5805 5803 5802 5800 5799 5798 5796 5795 5792 5790 5788 5786 5784 5781 5779 5777 5774 5772
5811 5812 5812 5812 5813 5813 5812 5813 5812 5812 5811 5810 5810 5809 5808 5807 5806 5805 5804 5803 5801 5799 5797 5796 5795 5794 5793 5792 5790 5788 5787 5785 5784 5782 5779 5777 5774 5772 5769 5767 5765 5763 5760
5805 5805 5805 5806 5806 5805 5804 5805 5805 5804 5804 5802 5801 5799 5797 5796 5796 5795 5794 5793 5792 5790 5788 5786 5786 5785 5783 5782 5780 5778 5776 5774 5772 5770 5767 5765 5762 5760 5757 5754 5752 5750 5746
5798 5799 5799 5799 5799 5798 5797 5797 5796 5795 5794 5793 5792 5790 5787 5786 5785 5785 5784 5783 5781 5780 5778 5777 5776 5774 5772 5771 5769 5767 5764 5762 5759 5757 5755 5752 5749 5746 5744 5741 5738 5735 5732
5791 5792 5792 5792 5792 5791 5790 5789 5788 5787 5785 5784 5783 5782 5780 5777 5775 5775 5774 5772 5770 5769 5767 5766 5765 5763 5761 5759 5757 5754 5752 5749 5746 5744 5742 5739 5735 5732 5729 5726 5722 5719 5716
5784 5784 5784 5784 5783 5782 5782 5780 5779 5778 5776 5775 5773 5771 5770 5768 5766 5765 5764 5762 5760 5759 5757 5755 5754 5752 5749 5747 5744 5741 5738 5735 5732 5730 5727 5724 5720 5716 5713 5709 5706 5702 5699
5776 5776 5775 5775 5775 5774 5772 5771 5770 5768 5766 5765 5763 5761 5760 5758 5756 5755 5753 5752 5750 5748 5746 5744 5741 5739 5737 5734 5731 5727 5724 5720 5717 5714 5710 5707 5703 5699 5696 5692 5688 5685 5682
5768 5767 5766 5766 5765 5764 5762 5761 5759 5758 5756 5754 5753 5751 5749 5748 5746 5744 5742 5740 5739 5737 5734 5732 5729 5727 5724 5720 5717 5713 5709 5704 5700 5696 5693 5689 5685 5681 5677 5673 5670 5667 5663
Wind_Speed
9 8 11 15 16 18 18 17 17 17 16 15 13 12 11 9 7 6 5 4 4 3 1 1 2 3 4 5 6 6 6 6 7 7 8 8 8 9 10 10 11 12 13
7 5 6 10 14 16 16 16 16 16 16 14 13 12 11 9 7 6 5 4 3 2 1 1 2 3 4 5 5 6 7 8 8 8 8 8 9 10 10 11 12 12 13
7 5 6 8 11 14 15 16 16 16 16 15 13 12 11 9 7 6 5 4 3 2 2 1 2 3 4 5 6 7 8 8 8 9 9 10 10 11 11 12 12 13 13
8 5 4 7 10 13 14 16 15 15 15 14 14 13 11 9 7 6 5 5 4 3 3 2 2 3 4 5 7 8 9 9 9 10 10 11 12 12 12 13 13 14 14
7 4 3 4 8 10 12 13 15 14 14 13 12 11 10 8 7 7 6 5 5 4 3 3 3 4 6 6 8 9 10 10 10 11 11 12 13 14 14 14 14 14 15
7 4 3 4 7 9 10 11 13 13 12 12 11 10 10 9 8 7 7 6 5 5 5 5 5 6 7 8 9 10 11 11 12 12 13 14 14 15 15 15 16 16 16
5 4 2 3 5 7 9 10 12 13 12 11 11 11 10 10 8 8 8 7 6 6 7 7 8 8 9 10 11 12 13 13 14 14 15 15 16 16 16 17 17 18 18
5 3 2 1 3 5 7 8 10 12 12 12 12 12 11 10 9 9 8 7 7 8 9 10 11 11 12 12 13 14 15 16 16 16 17 17 17 18 18 19 19 19 20
5 3 2 2 3 5 7 8 10 11 12 12 13 13 11 11 10 10 9 10 10 11 12 12 13 14 15 15 16 17 17 17 18 19 19 20 20 20 20 21 21 21 21
6 4 4 3 4 5 7 8 10 12 12 13 13 12 12 12 11 11 11 12 13 13 14 15 16 17 18 18 19 19 19 20 20 21 21 22 22 22 22 23 23 23 23
6 5 5 5 5 5 7 9 10 10 11 12 12 12 12 12 12 13 13 14 15 16 17 17 18 19 20 21 21 21 21 22 22 23 23 23 24 24 24 24 24 25 25
7 7 6 6 6 6 7 9 10 11 11 12 12 13 13 14 14 15 16 17 18 19 19 20 21 21 22 23 24 23 24 24 24 25 25 25 25 26 26 26 26 26 27
10 9 8 8 8 7 7 9 10 11 12 13 13 14 15 16 17 18 18 19 20 21 21 22 23 23 25 25 25 25 25 26 26 27 27 27 27 27 28 28 28 28 28
11 11 10 9 9 9 10 10 10 11 13 14 14 15 16 18 19 20 21 22 23 23 24 24 25 26 26 26 26 27 27 28 28 29 29 29 29 29 30 30 30 30 30
14 13 12 12 11 11 12 12 13 13 14 15 16 17 19 20 21 22 23 24 25 25 26 27 27 27 27 28 28 28 29 29 30 30 31 31 31 31 31 31 31 31 31
16 15 15 14 14 14 14 14 15 16 16 17 18 19 21 22 23 24 25 25 26 27 27 28 28 29 29 30 30 30 31 31 32 32 32 33 33 33 33 33 33 33 33
18 18 17 17 17 17 18 17 18 19 20 21 22 22 23 24 26 27 27 28 28 29 29 30 31 31 32 32 32 32 32 32 32 33 34 34 34 34 34 34 34 34 35
19 19 19 19 20 20 20 20 21 22 23 24 25 25 26 27 28 30 30 30 31 31 32 32 32 33 34 35 35 34 34 34 35 35 35 35 35 36 36 36 36 36 37
20 21 21 22 22 23 23 24 25 26 26 27 27 28 29 30 31 32 33 33 33 33 35 35 35 35 35 35 35 36 36 36 37 37 38 38 37 37 38 38 38 39 39
21 22 23 24 25 25 26 27 28 28 29 29 30 32 33 33 34 34 34 35 35 35 36 36 36 36 36 36 37 38 39 39 39 39 40 39 39 39 40 40 41 41 42
23 24 25 26 26 27 28 28 30 30 31 32 33 35 36 36 36 36 37 37 38 37 37 37 36 37 37 38 39 40 41 42 42 41 41 41 41 41 42 43 44 44 45
25 25 26 26 27 29 30 31 32 32 33 34 35 36 37 37 37 37 37 38 39 39 37 37 38 38 39 40 41 42 43 44 44 44 44 44 45 45 46 46 47 47 48
27 27 28 29 29 30 32 33 34 35 36 36 37 37 38 38 37 37 37 38 37 37 38 39 40 41 42 43 43 43 44 44 45 46 47 48 49 50 50 50 50 50 51
29 29 30 30 31 32 33 35 36 37 37 38 39 38 38 39 39 39 39 38 37 38 39 39 40 41 42 44 44 45 47 48 49 50 51 51 52 53 53 54 53 53 53
29 30 30 31 31 32 34 35 37 37 38 39 38 38 38 38 38 39 38 38 38 38 39 40 42 43 44 45 47 48 50 52 53 54 55 56 56 56 56 56 56 55 54
29 31 32 33 33 34 35 35 36 37 38 38 38 38 38 39 39 38 38 38 39 40 41 42 44 46 47 48 50 52 53 54 56 57 57 58 58 58 58 58 57 56 55
Wind_Direction
301 264 235 225 220 217 217 218 220 224 227 228 225 230 233 232 227 225 222 235 243 257 268 298 337 359 353 351 354 349 344 339 335 332 328 324 318 310 306 302 298 295 292
312 277 238 226 218 213 213 219 218 220 224 224 224 226 225 224 219 215 223 233 235 231 263 286 321 340 340 343 346 342 341 340 338 335 332 328 324 319 317 311 305 299 296
325 287 258 233 217 215 215 220 220 221 221 224 220 217 215 216 214 220 228 222 222 237 249 268 313 329 336 340 341 337 338 338 338 336 334 332 330 327 323 319 314 310 305
331 303 254 228 218 214 216 217 217 218 218 216 214 214 216 216 216 218 225 222 232 240 237 256 298 320 332 339 341 341 341 341 341 340 337 334 332 330 326 323 319 315 310
337 318 258 228 215 212 211 213 214 212 210 210 212 216 215 215 219 224 229 227 227 230 243 267 293 311 321 329 333 335 337 338 338 336 334 332 330 329 328 325 321 317 313
339 328 271 227 208 210 214 212 212 211 209 209 208 210 216 223 226 230 229 229 230 241 258 273 287 302 313 321 326 328 331 330 330 330 329 328 328 326 326 325 322 319 316
332 331 303 239 213 208 208 209 209 208 209 209 210 216 222 225 226 229 230 231 239 255 265 275 285 294 303 312 317 319 322 322 323 323 323 322 322 323 322 321 320 319 317
330 330 331 234 216 207 202 200 202 208 210 213 218 224 227 223 228 231 233 242 255 264 270 277 283 290 297 305 310 312 314 316 317 317 317 317 317 319 319 318 317 317 316
312 305 296 254 222 209 207 210 210 210 214 218 222 228 230 228 233 235 243 255 263 269 274 279 283 288 293 299 305 308 309 311 312 313 313 312 313 313 314 314 314 314 314
298 289 276 263 249 230 218 218 220 221 223 225 228 230 233 237 240 245 253 262 267 271 276 280 284 287 290 296 300 302 304 307 308 308 308 309 309 309 310 310 310 311 310
293 284 275 268 265 248 231 226 222 223 228 232 232 235 241 243 248 254 260 266 270 274 276 280 283 287 291 294 298 299 302 304 304 305 305 306 306 307 307 307 308 308 308
289 281 272 264 260 255 244 235 232 232 234 236 238 244 247 250 255 260 265 269 273 276 278 281 283 287 290 292 295 298 300 300 301 302 302 303 303 304 305 305 306 306 306
285 277 269 263 260 258 252 244 240 240 239 242 246 250 252 255 259 263 267 270 274 276 279 282 284 286 289 290 292 295 296 298 299 299 299 300 301 302 302 303 304 304 304
279 273 268 264 261 261 260 256 254 252 251 252 255 258 261 263 265 267 270 272 275 278 280 282 285 286 287 289 290 292 294 295 297 297 297 298 299 299 299 300 300 301 302
274 270 266 263 263 263 262 260 260 260 259 260 262 263 264 266 269 271 273 275 277 279 280 282 284 286 287 288 289 291 292 293 294 295 295 295 295 297 297 298 299 298 299
271 270 268 264 265 267 266 265 264 265 265 265 266 268 269 271 273 275 276 277 278 279 281 282 283 285 286 286 288 289 290 291 292 292 293 294 294 295 296 296 297 297 296
265 267 268 268 267 268 269 268 268 268 269 269 271 272 274 275 277 277 277 278 278 279 281 281 282 283 283 284 286 287 289 291 292 292 293 293 292 292 293 294 295 295 295
265 265 266 268 270 270 271 272 273 272 272 272 273 276 276 277 279 280 279 279 278 277 279 280 281 281 282 283 284 286 287 290 290 291 292 293 293 292 292 292 293 294 294
269 269 269 270 270 271 272 273 274 274 275 275 275 277 277 279 280 281 280 279 280 279 278 279 280 281 282 282 284 286 287 289 289 290 291 292 292 291 291 291 292 293 292
270 270 270 270 271 272 273 274 276 276 277 277 276 277 277 279 279 280 281 279 279 280 281 279 280 280 281 283 285 287 289 291 291 291 291 291 291 291 291 291 292 292 292
270 270 270 271 273 274 275 275 276 278 279 280 279 278 277 276 278 279 279 281 280 280 281 281 281 281 283 285 286 288 289 291 291 291 291 291 290 290 291 292 292 292 291
273 273 273 274 275 276 278 278 278 278 278 279 280 282 280 279 278 279 281 284 283 280 281 282 282 282 282 285 287 288 289 290 290 291 292 292 292 292 292 292 291 291 291
274 274 274 274 275 276 277 278 280 280 279 280 282 282 283 281 281 281 282 284 282 281 282 283 283 283 284 286 288 290 290 291 291 291 291 291 291 292 292 292 292 291 291
275 275 274 274 275 276 277 277 279 280 280 280 281 281 282 283 283 281 282 282 282 283 283 284 284 285 287 288 290 291 291 291 292 292 292 292 292 292 292 292 291 291 290
276 276 276 277 277 278 279 279 278 280 281 281 281 281 282 282 282 281 282 283 283 284 286 286 288 289 289 290 291 291 292 292 293 293 293 293 292 292 291 291 290 289 288
278 277 277 278 278 278 279 280 281 281 282 282 282 283 284 284 282 282 282 283 284 285 287 289 290 291 291 292 292 293 293 293 294 294 293 293 293 292 292 291 289 288 287